Location: Krasnoyarskiy Pitomnik
(51.1333°N, 71.6167°E)
Time: 10:21:09
(UTC+00:00)

CZ-2D R/B - Pass Details

Date: 22 October 2021
Orbit: 519 x 537 km, 97.4° (Epoch: 06 December)

Event Time Altitude Azimuth Distance (km) Brightness Sun altitude
Rises 12:53:18 0° 164° (SSE) 2,665 6.7 -8.0°
Reaches altitude 10° 12:55:24 10° 164° (SSE) 1,783 5.8 -8.3°
Maximum altitude 12:59:15 88° 81° (E) 543 3.2 -8.9°
Drops below altitude 10° 13:03:10 10° 347° (NNW) 1,806 6.0 -9.5°
Sets 13:05:18 0° 347° (NNW) 2,704 6.9 -9.9°
